Wind_Speed
26 22 18 16 16 16 16 16 16 13 10 12 15 17 20 21 21 21 20 19 17 16 16 17 17 15 15 16 16 16 16 16 15 14 15 14 13 13 13 13 14 15 15 15 15 16 17 17 17 17 17 16 16 16 16 15 13 13 14 14 14 14 14
26 24 19 17 16 16 15 15 15 15 12 11 12 14 17 20 21 21 21 19 18 18 18 18 18 16 17 18 17 17 17 17 15 15 15 14 13 13 14 14 15 15 15 15 15 16 16 18 18 18 17 17 17 17 17 16 15 15 15 14 14 14 14
24 24 21 19 18 16 15 14 13 13 13 12 13 14 15 17 18 20 20 20 19 19 19 19 19 18 18 19 18 18 18 17 17 16 15 15 14 15 15 15 15 15 15 15 15 16 17 18 18 18 18 18 18 18 18 18 17 17 16 15 15 15 15
22 24 24 22 20 17 16 15 13 13 13 14 15 17 17 17 17 19 20 20 19 19 19 20 20 19 19 19 19 19 19 19 19 17 16 15 15 15 15 16 16 16 16 16 16 16 17 18 18 18 18 18 18 19 19 19 18 17 17 16 16 16 16
24 24 25 25 22 19 17 16 14 14 14 15 17 19 20 19 19 20 20 20 20 21 20 21 22 22 22 22 22 22 21 20 19 17 16 15 15 15 16 17 17 17 16 16 16 16 16 17 18 18 18 18 19 19 19 20 19 18 18 17 17 17 17
27 25 26 28 25 22 19 17 17 16 16 17 18 20 21 21 21 22 23 22 22 22 22 23 24 24 25 25 25 24 23 21 19 17 16 15 16 16 17 18 18 17 16 16 16 16 17 17 18 18 18 19 19 19 19 20 19 19 18 18 18 17 17
30 27 28 29 27 25 22 20 19 19 19 19 20 22 22 22 23 23 24 24 24 23 24 25 25 26 26 26 26 25 23 21 20 18 17 17 17 17 17 17 17 17 16 16 16 16 17 17 18 18 19 19 19 18 19 19 19 19 18 18 18 18 18
32 30 29 29 28 28 26 23 22 22 22 22 23 23 24 24 25 25 25 25 25 25 26 26 27 26 26 26 25 24 23 21 20 19 18 18 18 17 17 17 17 17 17 16 16 16 17 17 17 18 18 18 18 18 19 19 19 18 18 18 18 18 19
33 31 30 30 30 30 28 25 23 23 23 24 25 25 26 27 27 27 26 26 26 26 27 27 27 26 25 25 25 24 23 22 21 20 19 19 18 17 17 17 17 17 17 17 17 17 17 17 17 18 19 19 19 19 19 19 19 19 19 19 19 19 19
33 32 33 33 33 32 30 27 25 25 24 24 24 25 26 27 28 28 27 27 27 27 27 27 27 26 25 24 24 23 22 22 21 20 19 19 18 17 17 17 17 17 18 17 17 17 17 17 18 19 20 20 20 20 20 19 19 19 19 19 19 19 19
34 34 36 38 37 34 31 29 27 25 24 24 24 25 25 26 27 28 29 28 28 28 28 27 26 26 25 24 23 23 22 21 21 20 20 20 18 17 17 17 17 18 18 18 17 17 17 18 19 20 20 21 20 20 19 19 18 18 19 19 20 20 20
37 38 39 39 37 32 30 29 27 25 25 24 24 24 24 25 26 28 29 28 28 28 28 26 24 23 23 23 23 23 22 21 21 20 20 19 18 17 17 17 17 18 18 18 18 18 18 19 19 19 19 19 19 18 18 18 18 19 19 20 21 21 21
38 39 39 38 36 32 30 30 28 26 25 23 22 22 22 24 25 26 28 28 28 29 29 27 24 22 22 21 22 22 21 21 21 20 20 19 19 18 18 18 18 18 18 18 18 18 19 18 18 18 18 18 18 18 18 19 20 20 21 21 21 21 21
38 39 37 36 36 33 31 31 30 27 25 23 22 21 21 23 24 25 26 27 27 28 29 28 26 23 21 21 21 21 21 22 21 21 21 20 19 18 18 19 19 19 18 18 18 18 18 17 17 18 18 18 18 19 19 20 21 21 21 21 21 20 20
34 36 35 34 35 33 31 31 31 29 27 24 22 21 21 22 23 23 25 25 24 25 28 28 26 24 22 22 23 23 23 23 22 22 22 21 20 19 20 20 20 19 19 18 18 18 18 18 18 19 19 19 19 20 21 21 21 21 21 20 20 20 20
27 31 33 33 33 31 29 29 30 29 27 25 23 21 20 21 22 23 24 25 24 24 26 27 27 26 25 25 25 25 25 24 24 23 22 21 20 20 21 21 20 20 20 19 19 18 19 19 20 20 20 19 19 20 21 21 20 20 20 20 20 20 21
22 24 29 31 30 30 29 29 29 27 26 25 25 23 21 20 22 24 24 25 25 25 25 26 28 28 27 27 27 26 26 25 25 24 22 21 21 21 21 22 22 21 21 21 20 19 20 21 21 20 19 19 19 20 20 20 20 20 20 20 20 21 22
18 18 21 26 27 28 29 29 28 26 24 24 24 24 22 21 22 24 25 26 26 25 25 26 28 28 27 27 27 26 26 26 25 24 23 23 22 22 22 22 23 23 23 22 21 20 21 21 21 20 19 19 19 19 20 20 20 20 20 21 21 21 22
13 13 16 21 24 27 28 28 27 24 22 22 23 23 23 23 23 24 26 27 26 25 24 25 26 27 27 26 26 26 27 27 26 25 24 24 23 23 23 23 23 24 23 23 22 22 22 21 21 20 20 20 20 20 21 21 21 21 21 22 22 23 23
9 11 14 18 22 25 27 26 25 24 23 22 23 24 24 23 23 23 24 25 25 25 25 25 25 26 26 26 26 26 27 27 27 26 25 24 24 23 23 24 24 24 24 24 24 24 23 22 22 21 21 21 21 22 23 23 23 23 24 24 24 24 25
8 10 13 16 20 23 25 26 26 26 25 24 24 24 24 23 22 21 22 23 24 25 25 25 25 25 26 26 26 26 26 27 27 26 25 24 24 24 24 24 24 24 25 25 26 25 25 24 23 23 23 23 23 24 24 25 25 25 26 26 26 26 27
10 11 13 16 19 22 24 27 28 28 27 25 25 24 23 23 23 23 22 23 24 25 25 25 25 25 25 25 25 25 26 27 26 26 26 26 25 24 24 24 24 24 25 26 27 26 26 25 25 25 25 25 25 25 26 26 26 27 27 27 27 28 28
11 12 14 16 18 20 22 24 26 27 26 26 26 25 23 24 25 24 24 24 24 24 24 25 26 26 25 24 25 26 27 27 27 28 27 26 25 24 24 24 25 26 27 28 28 27 26 25 25 26 26 25 26 26 26 27 27 27 27 28 28 28 29
12 13 14 15 16 17 19 20 22 24 26 26 26 25 24 25 26 25 24 24 24 24 24 24 25 26 26 26 27 29 29 28 28 27 26 25 24 24 24 25 26 27 28 28 27 26 25 25 25 26 26 26 26 26 26 27 27 28 28 28 28 28 28
12 12 13 13 13 14 16 19 21 23 25 25 24 24 23 25 25 25 25 25 24 24 25 25 25 26 27 28 29 30 30 29 28 27 26 26 26 27 27 27 27 27 26 26 25 25 25 25 25 26 26 27 27 27 27 27 28 28 28 28 28 28 28
11 10 11 11 12 11 13 17 21 22 22 22 22 22 23 24 25 25 25 26 26 25 25 25 25 25 27 29 30 31 30 30 29 28 27 27 27 27 27 27 26 26 25 24 24 24 25 26 26 27 27 27 27 28 28 28 28 28 27 27 28 28 28
11 10 10 10 11 11 10 13 17 19 20 20 21 22 24 25 25 25 26 27 26 26 25 25 24 25 26 28 29 29 29 29 28 28 27 26 25 25 25 25 25 24 24 24 25 25 26 27 28 28 28 29 29 29 29 28 28 28 28 28 28 28 28
11 11 10 10 9 9 9 11 14 17 19 20 21 24 26 26 25 26 27 27 26 25 25 25 25 25 27 28 28 28 28 28 28 27 26 25 25 25 24 24 23 23 24 25 26 27 27 28 28 29 29 29 29 29 29 29 29 29 29 29 28 28 28
12 11 11 11 10 10 11 13 14 16 19 22 22 23 25 25 25 27 28 27 25 25 25 25 25 26 27 28 28 29 29 29 28 27 27 26 26 25 24 23 23 23 24 25 26 27 28 29 29 29 29 28 29 30 30 30 31 31 30 29 28 28 28
12 11 11 13 13 12 13 15 18 18 19 21 22 24 25 26 27 28 28 27 26 26 25 25 25 25 26 27 29 29 29 29 29 28 28 27 26 25 25 25 24 24 24 25 25 26 27 29 30 30 30 30 31 32 31 30 30 30 29 29 29 30 30
14 13 13 13 14 14 14 12 16 20 20 20 23 25 26 27 30 30 28 27 26 25 25 24 24 24 25 27 29 29 29 29 29 29 29 28 27 26 26 26 26 25 25 26 26 26 27 29 31 31 32 33 34 33 32 30 30 30 30 31 31 32 33
15 15 14 14 14 15 15 13 11 14 17 21 24 25 26 29 32 30 26 25 25 24 23 23 23 23 24 26 28 29 29 29 29 29 28 27 26 25 25 26 26 27 28 29 29 29 31 32 33 33 33 34 34 34 34 34 34 34 34 34 34 33 33
17 16 16 16 16 15 15 16 15 14 13 18 26 28 28 30 31 29 25 25 24 23 23 23 23 24 25 27 28 28 29 29 30 29 29 28 27 27 27 27 27 29 31 31 32 33 34 35 34 34 34 35 36 37 38 39 39 39 39 39 37 36 35
19 18 17 17 17 17 16 16 17 16 13 13 20 27 29 29 29 29 27 25 24 24 24 25 26 25 25 26 27 29 29 30 29 29 29 28 28 28 27 26 26 28 29 29 31 33 34 35 35 35 36 37 38 39 40 41 41 41 40 40 40 40 39
20 19 19 18 18 18 17 17 17 18 16 14 15 18 23 25 26 27 27 25 26 26 27 27 27 25 23 24 26 29 30 29 27 26 26 27 27 28 27 27 27 29 30 31 33 34 36 37 38 39 39 39 39 39 40 40 41 40 39 38 38 37 37
21 20 20 19 19 19 19 19 18 18 18 17 16 16 18 20 23 25 26 27 27 28 28 29 29 28 26 26 28 30 31 30 29 29 30 32 33 33 32 32 31 32 34 35 37 39 40 42 42 42 42 41 39 39 39 40 40 39 37 35 33 33 33
23 22 22 21 20 20 21 21 21 20 20 19 18 18 18 17 19 22 26 27 27 26 26 26 26 27 27 27 28 28 28 29 31 32 33 34 36 37 39 39 39 39 39 40 42 44 45 45 44 44 42 40 38 38 38 37 36 35 33 33 33 33 35
Wind_Direction
257 263 269 275 280 282 281 280 275 268 253 238 232 225 218 216 217 218 220 220 222 225 227 232 238 240 241 243 241 239 237 240 244 245 243 243 245 247 246 246 247 249 252 255 258 261 263 264 263 262 260 259 257 256 256 257 257 257 259 261 265 269 272
259 261 265 268 271 272 273 275 276 275 269 255 243 234 225 219 220 223 224 225 226 229 232 237 242 240 237 239 240 239 241 244 246 246 245 247 249 250 250 251 253 255 257 259 262 264 265 265 263 260 256 255 255 254 255 256 257 259 260 262 266 270 274
265 263 263 262 262 264 266 267 271 274 269 257 247 244 237 227 224 227 229 230 231 233 234 237 241 240 236 238 241 240 241 245 249 250 250 250 248 250 252 255 257 260 261 263 265 266 267 267 266 263 260 258 257 257 257 258 259 262 263 265 268 272 274
262 263 263 260 258 258 260 262 264 265 265 258 248 241 239 234 231 231 232 232 233 233 233 234 237 239 240 242 243 241 241 246 250 251 250 249 248 250 253 256 260 262 263 265 266 267 268 267 267 266 264 262 261 259 259 259 260 263 265 268 270 272 274
256 257 261 261 259 256 257 259 259 257 257 256 251 242 237 235 236 235 232 231 230 230 231 233 236 238 242 245 245 244 244 247 249 249 249 251 251 252 254 257 260 262 262 263 265 267 267 267 267 266 264 262 260 259 259 260 261 263 264 267 269 271 272
255 254 258 260 259 257 256 255 255 253 251 249 249 246 240 238 239 237 233 231 231 232 233 235 238 240 242 246 247 247 246 247 249 249 249 250 251 252 255 257 260 262 263 263 265 266 266 266 266 265 262 260 260 260 260 262 262 263 264 267 268 270 270
259 258 260 259 256 254 253 251 249 249 248 247 246 247 245 242 241 238 234 232 233 235 237 238 239 240 243 248 250 250 249 249 250 248 247 247 249 252 256 259 261 263 263 263 264 264 264 265 265 264 263 262 263 263 262 263 263 264 265 267 268 270 270
264 263 261 256 250 248 247 246 246 247 247 247 246 245 244 241 240 238 235 234 234 236 239 240 240 241 245 250 253 253 252 252 252 248 247 248 251 254 257 260 262 263 263 262 260 259 260 263 264 264 265 265 265 264 264 264 264 264 265 266 268 270 272
265 263 258 251 245 244 243 240 242 244 244 245 245 245 244 241 238 238 236 235 236 238 239 239 240 242 248 252 254 255 255 255 254 250 247 250 252 253 256 259 261 262 261 258 256 255 257 259 262 263 265 265 265 265 266 267 267 266 267 267 268 270 274
263 261 256 251 245 243 242 239 241 245 245 245 246 247 247 244 241 240 238 237 238 241 240 239 240 244 248 251 253 255 256 257 255 250 247 250 253 253 255 258 259 259 257 254 252 252 255 258 260 262 263 264 265 266 267 268 268 269 269 270 271 273 276
258 255 252 250 246 242 240 242 247 249 246 245 244 244 245 244 242 240 238 237 239 241 241 240 242 245 246 248 251 253 256 257 255 251 248 250 252 255 257 258 258 256 253 252 251 252 254 257 259 261 262 265 266 267 268 268 269 270 271 273 276 277 279
255 251 251 251 248 244 242 246 253 250 244 244 244 243 244 244 241 239 235 234 237 240 241 240 243 246 247 249 251 252 256 259 257 253 250 250 253 256 258 258 255 252 250 250 251 253 254 255 257 260 262 264 266 267 268 270 270 272 274 277 280 280 281
254 252 254 254 249 243 243 248 251 247 244 246 246 243 244 243 241 239 235 233 234 238 240 241 241 244 245 246 248 250 254 258 258 254 251 250 253 255 257 256 253 250 249 250 251 252 253 254 257 259 261 263 265 267 269 270 272 274 276 279 281 281 281
256 255 255 253 244 239 242 245 246 245 246 248 246 241 241 240 239 239 236 234 235 237 239 241 241 242 241 240 241 246 251 254 255 252 251 252 254 254 255 254 251 249 248 248 248 249 250 252 255 257 259 262 265 269 270 272 273 275 275 276 277 278 278
257 254 250 245 238 237 243 245 242 241 243 245 246 243 242 239 235 236 237 236 235 235 236 239 241 240 239 238 241 246 249 250 250 249 251 254 254 253 253 253 250 249 248 247 245 245 247 251 254 258 261 264 268 271 271 272 273 272 272 272 272 273 273
255 248 242 238 234 234 241 242 239 239 241 243 245 243 242 239 234 235 238 237 236 235 235 237 238 237 236 238 242 245 247 248 248 249 251 252 252 253 253 253 251 249 248 246 245 246 249 253 258 262 266 269 272 273 273 272 271 271 271 271 271 271 272
250 244 239 234 230 231 238 239 238 239 242 243 245 244 242 241 237 236 240 240 238 236 235 236 238 237 236 239 242 244 245 247 247 249 250 250 251 252 252 251 250 249 248 247 247 249 253 258 262 267 271 273 273 272 271 271 271 271 272 272 272 274 274
249 244 237 229 227 232 239 239 237 239 243 246 249 247 245 246 243 241 243 242 238 235 234 237 239 238 237 239 242 244 245 246 247 248 248 248 250 252 252 251 251 251 251 251 252 255 258 263 267 271 273 272 271 269 268 268 269 269 270 270 272 273 273
248 243 236 230 232 238 241 238 235 236 242 248 250 249 249 250 248 244 243 241 238 235 235 237 239 240 238 238 241 243 244 246 247 248 248 248 250 253 254 255 255 255 257 257 259 261 263 267 270 272 272 270 268 267 266 266 266 265 266 268 270 271 271
258 251 244 239 239 241 240 235 233 235 240 243 245 248 250 248 245 241 240 240 240 239 239 239 239 240 239 239 240 243 245 246 248 249 248 249 251 255 257 259 259 260 261 262 263 264 266 268 269 270 269 267 266 264 264 263 262 262 265 268 269 270 270
281 267 257 250 245 244 241 238 237 240 243 243 245 249 249 244 239 238 237 237 238 240 241 239 238 239 240 240 241 243 245 246 247 248 249 250 252 256 259 260 261 262 263 264 264 264 266 267 267 267 266 265 264 264 263 263 263 264 267 268 270 270 270
294 282 270 261 254 249 246 243 240 240 243 245 248 249 247 241 234 232 233 233 233 236 237 236 235 237 238 238 240 241 243 245 248 249 249 249 251 254 256 257 259 261 263 263 264 264 265 265 264 264 264 265 265 265 265 266 266 267 268 269 270 272 273
293 287 277 269 261 254 250 247 242 239 240 243 247 246 241 235 231 228 229 230 230 232 234 234 233 232 232 234 238 241 243 244 247 248 248 249 251 253 255 257 257 259 260 262 264 265 264 262 261 262 264 266 267 267 267 267 267 268 269 270 272 273 275
294 289 282 274 265 255 251 248 242 238 238 241 244 242 233 228 228 227 227 229 229 230 231 231 230 230 231 234 239 242 243 244 246 248 249 251 254 256 257 257 257 257 258 260 261 262 261 260 260 262 264 265 266 266 266 267 268 268 270 271 273 275 277
303 296 285 276 269 261 252 244 238 235 234 236 237 234 228 226 227 225 226 229 230 229 227 227 230 233 236 238 240 241 242 243 246 248 250 253 255 257 256 256 255 254 255 256 258 259 260 261 262 263 264 264 264 264 265 266 267 269 270 273 275 277 278
310 304 292 279 274 270 257 243 236 232 230 228 225 223 223 225 225 223 226 231 231 226 223 226 232 237 240 241 242 242 243 245 247 249 252 253 252 251 250 249 248 249 252 255 258 260 263 264 265 265 264 262 261 261 262 264 267 269 271 273 275 277 278
313 311 302 286 273 270 261 244 233 228 226 223 219 219 220 222 224 225 225 225 224 222 225 231 237 241 244 246 247 246 246 247 249 252 252 250 246 244 244 244 245 249 253 257 260 263 265 265 265 264 263 262 262 263 264 266 269 271 272 274 276 278 279
314 313 308 297 281 271 264 249 235 227 227 226 223 222 223 223 224 223 219 216 218 224 230 235 240 244 247 250 251 250 250 250 251 251 250 248 247 245 245 246 250 255 259 261 262 263 263 263 262 262 262 264 265 267 269 270 271 272 273 274 276 278 280
310 312 309 305 297 284 269 256 248 240 234 229 226 224 224 224 221 218 217 220 225 230 233 236 241 244 247 250 251 251 251 251 251 249 248 250 251 251 250 252 256 259 260 261 261 261 260 260 260 261 262 264 266 267 267 268 269 270 270 272 275 277 278
302 304 305 306 305 299 279 254 246 249 241 230 226 225 225 228 227 222 223 227 230 232 234 237 240 243 246 248 249 250 250 251 250 249 249 250 253 254 253 254 257 259 259 258 257 258 259 260 260 260 260 261 262 263 264 267 269 269 269 271 273 275 275
296 296 298 300 301 303 296 265 243 243 238 227 227 229 227 229 230 227 226 228 229 230 232 235 239 242 246 248 249 249 248 248 248 249 249 252 255 256 256 256 259 261 260 258 257 257 259 260 259 259 259 261 263 264 266 269 269 268 266 268 271 273 274
292 291 291 293 293 296 300 296 279 261 243 228 228 231 229 227 227 226 227 229 229 230 232 234 239 243 246 249 249 248 246 246 248 250 251 253 256 258 259 259 260 261 261 260 259 258 258 260 261 264 266 268 268 269 270 272 273 273 271 270 271 272 273
289 288 286 287 290 290 292 294 297 297 274 239 226 224 224 225 226 229 232 232 232 234 233 234 237 241 245 249 250 248 246 246 247 249 252 254 257 260 260 258 258 259 260 259 258 257 257 260 264 267 269 269 269 270 272 275 278 279 278 277 277 276 275
288 287 284 284 284 286 288 289 290 297 295 260 233 227 226 226 229 235 239 238 238 240 237 236 237 239 242 248 251 249 247 247 250 252 253 253 254 254 252 248 249 252 253 254 256 257 259 261 262 265 267 268 270 271 272 274 275 276 277 278 278 277 276
286 286 285 283 282 282 283 284 285 287 289 281 263 249 244 242 242 244 245 245 247 248 245 241 239 237 239 247 253 254 252 251 252 252 249 245 244 244 241 238 239 244 249 254 259 262 265 265 266 269 271 272 273 274 275 276 277 278 277 276 274 274 275
280 283 284 284 283 281 280 280 280 280 280 280 277 269 263 262 261 258 254 251 252 254 254 252 249 247 247 252 256 256 254 251 247 243 240 239 243 245 244 241 241 244 249 255 260 264 267 268 270 273 275 275 276 277 278 279 280 280 279 277 277 278 278
277 278 280 280 279 278 278 277 277 277 276 276 275 273 271 270 267 262 258 255 255 257 256 254 254 251 247 246 247 248 249 247 242 238 238 242 246 248 247 247 247 248 252 256 261 264 266 268 271 273 275 275 276 275 276 277 278 278 279 279 278 277 276
Height
5786 5786 5786 5787 5786 5786 5786 5786 5786 5786 5786 5786 5787 5788 5790 5792 5793 5794 5795 5796 5797 5799 5800 5801 5801 5801 5802 5803 5804 5804 5805 5806 5807 5808 5808 5808 5809 5809 5810 5810 5811 5811 5812 5812 5813 5813 5813 5813 5814 5814 5814 5815 5815 5815 5815 5815 5815 5815 5816 5816 5816 5816 5817
5784 5784 5784 5784 5785 5785 5784 5785 5785 5785 5785 5785 5785 5786 5787 5790 5791 5792 5793 5794 5795 5797 5798 5799 5799 5800 5801 5802 5802 5803 5803 5805 5805 5806 5806 5806 5807 5808 5808 5809 5809 5810 5810 5811 5811 5811 5811 5811 5811 5812 5812 5813 5813 5813 5813 5813 5814 5814 5814 5815 5815 5815 5815
5782 5782 5782 5781 5782 5783 5783 5783 5784 5784 5785 5785 5785 5785 5786 5788 5789 5790 5791 5792 5793 5795 5796 5797 5798 5798 5799 5799 5800 5801 5801 5802 5803 5804 5804 5805 5805 5806 5806 5807 5808 5808 5809 5809 5809 5809 5809 5809 5810 5810 5810 5811 5811 5812 5812 5812 5812 5813 5813 5814 5814 5814 5814
5779 5779 5780 5779 5779 5780 5781 5782 5782 5783 5783 5784 5784 5784 5785 5787 5788 5789 5789 5790 5791 5793 5794 5795 5797 5798 5797 5797 5798 5798 5799 5800 5801 5802 5802 5803 5803 5804 5805 5805 5806 5807 5807 5807 5807 5807 5808 5808 5808 5808 5809 5809 5810 5810 5810 5810 5811 5811 5812 5812 5812 5812 5813
5775 5776 5777 5777 5778 5778 5778 5779 5780 5780 5781 5781 5782 5782 5783 5785 5786 5787 5787 5788 5789 5790 5792 5794 5795 5796 5797 5796 5796 5797 5798 5799 5799 5800 5800 5801 5802 5802 5803 5804 5804 5805 5805 5805 5805 5805 5806 5806 5806 5807 5807 5807 5808 5808 5809 5809 5809 5810 5810 5810 5810 5810 5811
5772 5773 5773 5774 5776 5776 5775 5776 5776 5777 5778 5779 5779 5779 5780 5782 5783 5784 5785 5786 5786 5788 5790 5791 5793 5794 5795 5795 5796 5796 5796 5797 5797 5798 5799 5799 5800 5800 5801 5802 5802 5803 5803 5803 5803 5804 5804 5804 5804 5805 5805 5805 5806 5807 5807 5807 5808 5808 5809 5809 5809 5808 5808
5769 5770 5771 5771 5772 5773 5772 5772 5772 5773 5774 5775 5776 5776 5777 5779 5780 5781 5782 5783 5784 5785 5787 5788 5790 5791 5792 5793 5794 5794 5795 5795 5795 5796 5796 5797 5797 5798 5799 5800 5800 5801 5801 5801 5801 5802 5802 5802 5803 5803 5803 5804 5805 5806 5806 5806 5806 5807 5807 5807 5807 5807 5806
5765 5767 5768 5767 5768 5769 5768 5768 5768 5769 5770 5770 5772 5773 5774 5775 5776 5778 5779 5780 5781 5782 5784 5785 5786 5788 5789 5790 5791 5792 5793 5793 5793 5794 5794 5795 5795 5796 5797 5797 5798 5798 5799 5799 5800 5800 5800 5800 5801 5801 5801 5802 5803 5804 5804 5804 5805 5805 5805 5805 5805 5805 5805
5762 5763 5763 5763 5763 5764 5764 5764 5765 5765 5765 5766 5768 5769 5770 5772 5773 5775 5777 5778 5779 5780 5781 5782 5783 5785 5786 5788 5789 5790 5791 5791 5791 5792 5793 5793 5793 5794 5795 5795 5796 5796 5797 5797 5798 5798 5798 5798 5799 5799 5800 5800 5802 5803 5803 5803 5803 5803 5803 5803 5803 5803 5803
5759 5759 5758 5757 5757 5759 5760 5760 5761 5761 5762 5764 5765 5766 5768 5769 5771 5773 5774 5776 5777 5778 5779 5780 5781 5782 5783 5785 5786 5788 5788 5789 5790 5790 5791 5791 5790 5791 5792 5793 5793 5794 5795 5795 5795 5796 5796 5796 5797 5797 5798 5799 5800 5801 5802 5802 5801 5801 5801 5801 5801 5801 5801
5755 5754 5753 5751 5752 5755 5757 5757 5758 5759 5760 5761 5762 5763 5765 5767 5768 5770 5771 5774 5775 5775 5776 5777 5778 5779 5780 5782 5783 5784 5786 5787 5787 5788 5789 5789 5789 5789 5790 5790 5791 5792 5793 5793 5793 5794 5794 5794 5795 5795 5796 5797 5798 5800 5800 5800 5800 5799 5799 5799 5799 5799 5799
5749 5749 5748 5748 5751 5754 5755 5755 5756 5757 5758 5758 5759 5761 5762 5763 5765 5766 5768 5771 5772 5773 5774 5775 5775 5776 5777 5778 5779 5781 5782 5784 5785 5786 5786 5786 5787 5787 5788 5788 5789 5790 5790 5791 5791 5791 5792 5792 5793 5793 5794 5795 5796 5797 5798 5798 5798 5797 5797 5797 5797 5797 5797
5744 5744 5746 5748 5750 5751 5753 5754 5754 5755 5755 5756 5757 5759 5760 5761 5762 5763 5765 5767 5769 5771 5771 5772 5773 5774 5774 5775 5776 5777 5779 5781 5782 5783 5784 5784 5785 5785 5786 5786 5787 5788 5788 5789 5789 5789 5790 5790 5791 5791 5792 5793 5794 5795 5796 5796 5795 5795 5795 5795 5795 5795 5795
5740 5741 5743 5745 5745 5747 5749 5750 5751 5752 5753 5754 5755 5756 5757 5758 5759 5760 5762 5764 5766 5768 5769 5770 5771 5772 5771 5772 5773 5775 5776 5778 5779 5780 5781 5782 5782 5783 5784 5784 5785 5786 5786 5787 5787 5787 5787 5788 5788 5789 5790 5791 5792 5793 5793 5793 5793 5793 5793 5793 5793 5792 5792
5736 5737 5739 5740 5741 5743 5745 5746 5747 5749 5751 5752 5753 5754 5755 5756 5757 5758 5759 5761 5763 5765 5766 5768 5769 5769 5770 5770 5771 5773 5774 5775 5776 5778 5778 5779 5780 5781 5782 5782 5783 5784 5784 5785 5785 5785 5785 5786 5786 5787 5788 5789 5790 5790 5790 5790 5790 5790 5790 5790 5790 5790 5790
5732 5733 5734 5736 5738 5740 5741 5742 5744 5746 5747 5749 5750 5751 5753 5754 5755 5756 5757 5758 5760 5762 5763 5765 5767 5767 5768 5768 5769 5770 5771 5772 5774 5775 5776 5777 5777 5778 5779 5780 5781 5782 5782 5783 5783 5783 5783 5783 5784 5784 5785 5787 5787 5787 5787 5787 5787 5787 5787 5788 5787 5787 5787
5729 5730 5731 5734 5735 5737 5738 5739 5741 5743 5745 5746 5747 5749 5750 5751 5753 5754 5755 5756 5757 5759 5761 5763 5764 5765 5765 5766 5766 5767 5769 5770 5771 5772 5773 5774 5775 5776 5777 5778 5779 5779 5780 5780 5781 5781 5781 5781 5782 5782 5783 5784 5784 5785 5785 5785 5785 5785 5785 5785 5785 5785 5784
5727 5728 5729 5731 5733 5734 5735 5737 5739 5741 5743 5744 5745 5746 5748 5749 5750 5751 5752 5753 5754 5756 5758 5760 5762 5762 5763 5763 5764 5765 5766 5767 5769 5770 5771 5772 5773 5774 5775 5776 5776 5777 5778 5778 5779 5779 5779 5779 5780 5780 5780 5781 5781 5782 5782 5782 5782 5782 5782 5782 5782 5782 5781
5726 5727 5728 5729 5731 5731 5732 5735 5737 5739 5740 5741 5742 5744 5745 5746 5747 5748 5749 5750 5752 5754 5755 5757 5759 5760 5760 5761 5762 5763 5764 5765 5766 5767 5768 5769 5770 5771 5772 5773 5774 5774 5775 5776 5776 5777 5777 5777 5777 5777 5777 5778 5778 5779 5779 5779 5779 5779 5779 5779 5779 5778 5778
5725 5726 5727 5728 5729 5730 5731 5733 5735 5737 5737 5738 5739 5741 5742 5743 5744 5746 5747 5748 5749 5751 5753 5754 5756 5757 5758 5758 5759 5760 5761 5762 5763 5764 5766 5766 5768 5769 5770 5770 5771 5772 5773 5773 5774 5774 5774 5774 5774 5774 5774 5775 5775 5775 5775 5776 5776 5776 5776 5775 5775 5775 5775
5725 5726 5726 5726 5727 5728 5729 5731 5732 5734 5735 5736 5737 5738 5739 5741 5742 5744 5745 5746 5747 5749 5750 5751 5752 5754 5755 5756 5757 5758 5759 5759 5761 5762 5763 5764 5765 5766 5767 5768 5769 5770 5770 5770 5771 5771 5771 5771 5771 5771 5771 5772 5772 5772 5772 5772 5772 5773 5772 5772 5772 5772 5772
5724 5725 5725 5725 5725 5726 5727 5728 5729 5731 5733 5734 5735 5736 5737 5739 5739 5741 5742 5743 5745 5746 5747 5748 5749 5751 5752 5753 5754 5755 5756 5757 5758 5759 5760 5762 5763 5764 5764 5765 5766 5767 5767 5767 5768 5768 5768 5769 5769 5769 5769 5769 5769 5769 5769 5769 5769 5769 5769 5769 5769 5769 5769
5724 5724 5723 5723 5723 5724 5724 5725 5727 5729 5731 5732 5732 5733 5735 5736 5737 5738 5739 5741 5742 5743 5744 5745 5746 5747 5749 5750 5751 5752 5753 5754 5755 5757 5758 5759 5760 5761 5761 5762 5763 5764 5764 5764 5765 5765 5766 5766 5766 5766 5766 5766 5766 5766 5766 5766 5766 5766 5766 5766 5766 5766 5765
5723 5723 5722 5722 5722 5722 5722 5723 5725 5727 5729 5729 5729 5730 5733 5734 5734 5736 5737 5738 5740 5741 5742 5743 5744 5745 5746 5748 5749 5749 5750 5752 5753 5754 5755 5756 5756 5757 5758 5759 5760 5760 5761 5761 5762 5762 5763 5763 5763 5763 5763 5763 5763 5763 5763 5763 5763 5762 5762 5762 5762 5762 5762
5723 5722 5721 5720 5720 5720 5721 5721 5721 5723 5725 5725 5726 5728 5730 5731 5732 5733 5734 5735 5737 5738 5739 5740 5742 5743 5744 5745 5746 5747 5748 5749 5750 5751 5752 5753 5754 5754 5755 5756 5756 5757 5758 5758 5759 5759 5759 5760 5760 5760 5760 5760 5760 5759 5759 5759 5759 5759 5759 5759 5759 5759 5759
5722 5721 5720 5719 5719 5719 5719 5719 5718 5720 5721 5722 5723 5725 5727 5728 5729 5730 5732 5733 5734 5736 5737 5738 5740 5741 5742 5743 5743 5745 5746 5747 5748 5749 5749 5750 5751 5751 5752 5753 5753 5754 5755 5755 5756 5756 5756 5756 5756 5756 5756 5756 5756 5755 5755 5755 5755 5755 5756 5756 5756 5756 5755
5721 5720 5719 5718 5718 5717 5717 5717 5717 5718 5719 5721 5722 5723 5724 5725 5727 5728 5729 5730 5732 5733 5735 5736 5737 5738 5739 5740 5741 5742 5743 5744 5745 5745 5746 5747 5748 5748 5749 5750 5751 5752 5752 5753 5753 5753 5753 5753 5753 5752 5752 5752 5752 5752 5752 5752 5752 5752 5752 5752 5752 5752 5752
5719 5718 5718 5717 5716 5716 5716 5715 5715 5717 5718 5719 5720 5721 5722 5723 5724 5725 5726 5727 5729 5730 5732 5733 5734 5735 5737 5737 5738 5739 5740 5741 5742 5743 5744 5744 5745 5745 5746 5747 5748 5749 5749 5749 5749 5750 5750 5749 5749 5749 5749 5749 5749 5749 5748 5748 5749 5749 5748 5748 5748 5748 5748
5718 5717 5716 5715 5715 5714 5714 5714 5714 5715 5716 5716 5717 5718 5719 5720 5721 5722 5723 5725 5726 5727 5728 5729 5731 5732 5734 5734 5735 5736 5737 5738 5740 5741 5741 5741 5742 5742 5743 5744 5745 5745 5745 5746 5746 5746 5746 5745 5745 5745 5745 5745 5745 5745 5745 5745 5745 5745 5745 5745 5745 5745 5744
5716 5716 5715 5714 5713 5713 5712 5712 5712 5712 5713 5714 5715 5715 5716 5717 5718 5720 5721 5722 5724 5725 5726 5727 5728 5729 5730 5731 5732 5733 5734 5736 5737 5738 5738 5739 5739 5740 5740 5741 5741 5741 5742 5742 5742 5742 5742 5742 5742 5742 5742 5742 5742 5742 5742 5743 5743 5742 5742 5742 5742 5741 5740
5715 5715 5714 5713 5712 5711 5710 5710 5710 5710 5710 5711 5711 5712 5713 5715 5715 5717 5718 5719 5721 5722 5723 5724 5725 5726 5727 5728 5729 5730 5731 5732 5733 5734 5735 5736 5736 5737 5737 5737 5738 5738 5738 5738 5738 5738 5738 5738 5738 5738 5738 5738 5738 5738 5739 5739 5739 5739 5739 5738 5737 5737 5736
5714 5714 5713 5712 5711 5710 5709 5708 5708 5708 5708 5709 5709 5709 5711 5712 5713 5714 5716 5717 5718 5719 5720 5721 5721 5722 5723 5724 5725 5726 5728 5729 5730 5731 5732 5733 5733 5734 5734 5734 5734 5734 5734 5734 5734 5734 5734 5734 5734 5735 5735 5735 5734 5734 5734 5733 5733 5733 5733 5733 5733 5733 5732
5713 5712 5712 5711 5710 5709 5708 5707 5706 5706 5706 5706 5707 5708 5708 5709 5711 5712 5713 5714 5715 5716 5716 5717 5717 5718 5719 5720 5721 5723 5724 5725 5726 5727 5728 5729 5730 5731 5731 5731 5730 5730 5729 5729 5729 5729 5730 5730 5731 5731 5731 5730 5730 5729 5729 5728 5727 5727 5727 5727 5727 5727 5727
5711 5711 5710 5710 5709 5708 5707 5706 5705 5705 5705 5705 5706 5707 5707 5708 5709 5710 5711 5712 5712 5713 5713 5713 5713 5714 5715 5716 5717 5719 5721 5722 5723 5724 5724 5725 5726 5727 5727 5727 5726 5725 5724 5725 5725 5725 5725 5726 5726 5726 5726 5726 5725 5725 5724 5723 5722 5722 5722 5721 5721 5721 5720
5708 5708 5708 5708 5707 5707 5706 5705 5705 5704 5704 5704 5705 5706 5706 5706 5707 5708 5708 5709 5710 5710 5710 5710 5710 5711 5712 5713 5714 5715 5717 5719 5720 5721 5721 5721 5721 5722 5722 5722 5721 5721 5721 5720 5721 5721 5721 5721 5721 5721 5721 5721 5720 5720 5719 5718 5717 5716 5716 5716 5715 5715 5714
5706 5706 5706 5706 5705 5705 5704 5704 5704 5703 5703 5703 5703 5704 5704 5704 5705 5706 5706 5706 5707 5707 5707 5707 5707 5708 5709 5710 5710 5711 5712 5714 5715 5716 5716 5717 5717 5717 5718 5718 5717 5717 5717 5717 5717 5716 5716 5715 5715 5715 5715 5715 5715 5714 5713 5712 5711 5710 5710 5709 5709 5709 5709
5703 5703 5703 5703 5703 5703 5702 5702 5702 5701 5701 5701 5701 5701 5702 5702 5702 5702 5703 5703 5704 5704 5704 5704 5704 5705 5706 5706 5706 5707 5707 5709 5710 5711 5711 5712 5712 5712 5713 5712 5712 5713 5713 5712 5712 5711 5710 5710 5710 5710 5710 5710 5709 5709 5708 5707 5707 5706 5705 5704 5704 5704 5704